Preview of NWS' New Version of Forecast
This preview is not operational and should not be used for support decisions.

Regional Weather Roundup (RWR)

Issued by National Weather Service (NWS)

                            
000
ASUS42 KTBW 172217
RWRFL 
FLORIDA REGIONAL WEATHER ROUNDUP
NATIONAL WEATHER SERVICE TAMPA BAY RUSKIN FL
600 PM EDT SUN MAR 17 2019

NOTE: "FAIR" INDICATES FEW OR NO CLOUDS BELOW 12,000 FEET WITH NO
SIGNIFICANT WEATHER AND/OR OBSTRUCTIONS TO VISIBILITY.

FLZ001>010-012>015-112-114-115-172300-
PANHANDLE FLORIDA
  
CITY           SKY/WX    TMP DP  RH WIND       PRES   REMARKS
PENSACOLA      FAIR      63  29  27 N12       30.16R                  
PENSACOLA NAS  PTSUNNY   63  30  28 N9        30.15S                  
MILTON NAS     FAIR      60  34  37 NE3       30.16S                  
CRESTVIEW      FAIR      62  31  31 N6        30.17S                  
DUKE FIELD     FAIR      63  31  31 N10       30.15S                  
VALPARAISO     FAIR      64  31  29 N12       30.14S                  
PANAMA CITY    PTSUNNY   63  37  38 N8        30.13S                  
TYNDALL AFB    PTSUNNY   64  37  37 NE7       30.13S                  
APALACHICOLA   FAIR      61  46  57 SE3       30.11F                  

STATION/POSITION SKY/WX   TEMP    WIND        PRES    WAVE   SWELL
                          AIR SEA DIR/SP/G            HT/PER HT/PER
                          (F)     (DEG/KT/KT) (MB)    (FT/S) (FT/S)
30.1N   87.6W                                 1021.6F   2/ 4   2/ 4
29.2N   88.2W                      20/ 14/ 17 1022.1S   3/ 5
PANAMA CITY BEAC           63 66   10/  6/ 10 1020.8R
TOWER C                    59      60/  8/  8 1020.2F

$$
FLZ011-016>038-118-127-128-134-139-239-172300-
NORTH FLORIDA
  
CITY           SKY/WX    TMP DP  RH WIND       PRES   REMARKS
TALLAHASSEE    CLOUDY    61  45  55 VRB7      30.13S                  
PERRY          PTSUNNY   62  48  61 NE7       30.15R                  
LIVE OAK       CLOUDY    57  48  72 NE6       30.14R                  
CROSS CITY     PTSUNNY   62  50  66 N10       30.12S                  
LAKE CITY      CLOUDY    55  50  82 N9        30.13R                  
GAINESVILLE    CLOUDY    62  51  67 N8        30.14R                  
WILLISTON        N/A    N/A N/A N/A MISG        N/A                   
PALATKA        CLOUDY    57  54  88 N8        30.12R                  
MAYPORT NAS    CLOUDY    58  47  66 N13       30.12S                  
JACKSONVILLE   CLOUDY    57  47  69 NE9       30.12S                  
JAX NAS        CLOUDY    58  48  69 N13       30.13R                  
JAX CECIL      CLOUDY   N/A N/A N/A NE9       30.12S                  
FERNANDINA BEA CLOUDY    57  46  66 N8        30.13S                  
ST AUGUSTINE   CLOUDY    57  50  77 N14       30.13R                  
PALM COAST     PTSUNNY   57  52  82 N13G20    30.10R                  

STATION/POSITION SKY/WX   TEMP    WIND        PRES    WAVE   SWELL
                          AIR SEA DIR/SP/G            HT/PER HT/PER
                          (F)     (DEG/KT/KT) (MB)    (FT/S) (FT/S)
SHELL POINT      NOT AVBL
KEATON BEACH               61      40/  6/  8 1020.3R
CEDAR KEY                  62      20/  6/  8 1019.2R
FERNANDINA                 58 65  340/  6/ 13 1020.8F
30.7N   81.3W                 63                N/A     4/ 5
MAYPORT                    57 63   10/ 10/ 15 1020.1S
31.4N   80.9W              57 62   30/ 14/ 16 1020.0R   3/ 5   2/ 8
ST AUGUSTINE               57 63  360/ 20/ 23 1019.7R

$$
FLZ040-043>046-052-053-057-058-063-144-172300-
INTERIOR CENTRAL FLORIDA
  
CITY           SKY/WX    TMP DP  RH WIND       PRES   REMARKS
OCALA          CLOUDY    63  55  75 VRB6      30.10R                  
LEESBURG       CLOUDY    61  54  77 NE10      30.09R                  
SANFORD        CLOUDY    63  56  78 N9        30.06R                  
ORLANDO EXEC   PTSUNNY   64  54  69 NE10      30.06S                  
ORLANDO INTL   PTSUNNY   64  54  69 NE12      30.06S                  
KISSIMMEE      CLOUDY    64  57  78 NE12      30.06F                  
WINTER HAVEN   FAIR      68  60  75 NE9       30.05S                  
LAKELAND       MOSUNNY   68  59  73 NE7       30.04S                  
BARTOW         PTSUNNY   68  59  73 N8G15     30.03S                  
SEBRING        FAIR      76  64  67 N8        30.01S                  
OKEECHOBEE     PTSUNNY   77  64  65 CALM      29.99S                  

$$
FLZ041-047-054-059-064-141-147-172300-
EAST CENTRAL FLORIDA
  
CITY           SKY/WX    TMP DP  RH WIND       PRES   REMARKS
ORMOND BEACH   CLOUDY    57  57 100 N13G21    30.09S                  
DAYTONA BEACH  CLOUDY    60  56  86 N13       30.08S                  
DELAND         CLOUDY    59  54  82 N13G20    30.08R                  
NEW SMYRNA BEA CLOUDY    61  55  82 N15       30.08S                  
JFK SPACE CTR  CLOUDY    63  59  85 N10G20      N/A                   
TITUSVILLE     CLOUDY    66  57  72 N15       30.05F                  
CAPE CANAVERAL CLOUDY    64  58  81 N14       30.03F                  
PATRICK AFB    DRIZZLE   64  61  88 N16G23    30.04R                  
MELBOURNE      CLOUDY    66  59  78 N18       30.03S                  
VERO BEACH     PTSUNNY   69  62  78 N16       30.01F                  
FT PIERCE      FAIR      71  62  73 N9        30.01S                  
STUART         MOSUNNY   73  64  73 N9        30.02F                  

STATION/POSITION SKY/WX   TEMP    WIND        PRES    WAVE   SWELL
                          AIR SEA DIR/SP/G            HT/PER HT/PER
                          (F)     (DEG/KT/KT) (MB)    (FT/S) (FT/S)
28.5N   80.2W              67     330/ 21/ 25 1016.8
28.9N   78.5W              70 75   20/ 14/ 17 1016.4F   3/ 6   2/ 6
TRIDENT PIER               63 69  340/ 13/ 18 1018.6F
28.4N   80.5W                 68                N/A     3/ 5
27.5N   80.2W                 71                N/A     4/ 4

$$
FLZ050-056-061-142-242-148-248-149-249-151-251-155-255-
160-260-172300-
WEST CENTRAL FLORIDA
  
CITY           SKY/WX    TMP DP  RH WIND       PRES   REMARKS
CRYSTAL RIVER  CLOUDY    64  55  72 NE6       30.09R                  
INVERNESS      CLOUDY    63  61  94 NE7       30.10R                  
BROOKSVILLE    CLOUDY    66  57  72 E7        30.08R                  
CLEARWATER AIR PTSUNNY   70  59  68 NE6       30.04S                  
ST PETE CLEARW PTSUNNY   70  60  70 N6        30.04S                  
TAMPA INTL     CLOUDY    71  59  65 NE8       30.04S                  
TAMPA EXEC     PTSUNNY   68  61  77 N3        30.06R                  
PLANT CITY     FAIR      70  59  68 N7        30.06S                  
MACDILL AFB    LGT RAIN  72  61  68 NE7       30.03S                  
PETER O KNIGHT PTSUNNY   72  63  73 NE8       30.04S                  
ST PETERSBURG  FAIR      71  62  73 N9        30.02R                  
SARASOTA       FAIR      76  64  66 N12       30.00S                  
VENICE         FAIR      73  66  78 NW12      30.02S                  

STATION/POSITION SKY/WX   TEMP    WIND        PRES    WAVE   SWELL
                          AIR SEA DIR/SP/G            HT/PER HT/PER
                          (F)     (DEG/KT/KT) (MB)    (FT/S) (FT/S)
27.3N   84.2W                 73                N/A     3/ 5
CLEARWATER BEACH           70 74  360/  6/  8 1017.2S
MIDDLE TAMPA BAY           71      20/ 13/ 14 1017.0F
VENICE                     71 73  310/ 14/ 16 1016.4R

$$
FLZ066-069-070-075>078-162-262-165-265-172300-
SOUTHWEST FLORIDA AND KEYS
  
CITY           SKY/WX    TMP DP  RH WIND       PRES   REMARKS
PUNTA GORDA    FAIR      76  66  71 W7        30.01F                  
FT MYERS       FAIR      77  64  64 NW8       29.99S                  
SOUTHWEST INTL FAIR      78  65  63 W7        29.99S                  
NAPLES         PTSUNNY   76  68  76 W9        29.99F                  
IMMOKALEE      FAIR      82  66  57 VRB6      29.97S                  
MARATHON       FAIR      84  67  56 NW6       29.99F                  
KEY WEST NAS   PTSUNNY   83  69  62 N7        30.00F                  
KEY WEST INTL  FAIR      83  70  64 N7        30.00F                  

STATION/POSITION SKY/WX   TEMP    WIND        PRES    WAVE   SWELL
                          AIR SEA DIR/SP/G            HT/PER HT/PER
                          (F)     (DEG/KT/KT) (MB)    (FT/S) (FT/S)
NAPLES                     75 80  250/ 10/ 12 1015.8S
26.0N   85.6W              73 80   30/ 12/ 14 1017.1
DRY TORTUGAS               77      40/  8/  9 1016.0F
SAND KEY                   77                 1015.8F
SOMBRERO KEY               80                 1015.0F

$$
FLZ067-068-071>074-168-172>174-172300-
SOUTHEAST FLORIDA 
  
CITY           SKY/WX    TMP DP  RH WIND       PRES   REMARKS
W PALM BEACH   PTSUNNY   75  67  76 NE12      30.00S                  
BOCA RATON     MOSUNNY   77  70  78 E10       29.99F                  
FT LAUDER-EXEC PTSUNNY   78  71  79 E10       29.98F                  
FT LAUDERDALE  PTSUNNY   78  68  71 E9        29.97F                  
POMPANO BEACH  PTSUNNY   78  68  71 NE8       29.99S                  
PEMBROKE PINES FAIR      80  68  66 E10       29.99S                  
OPA LOCKA      FAIR      83  63  50 N9        29.98F                  
MIAMI          PTSUNNY   83  66  56 NW7       29.97F                  
WEST KENDALL   FAIR      84  65  52 W5        29.97F                  
HOMESTEAD      FAIR      80  71  74 SE8       29.97S                  

STATION/POSITION SKY/WX   TEMP    WIND        PRES    WAVE   SWELL
                          AIR SEA DIR/SP/G            HT/PER HT/PER
                          (F)     (DEG/KT/KT) (MB)    (FT/S) (FT/S)
PORT EVERGLADES            78      60/  6/  8 1015.5F
VIRGINIA KEY               79 80  120/  5/  7 1014.4F
LAKE WORTH                 75 79   20/ 13/ 15 1016.6F
FOWEY ROCKS                78 78  160/ 12/ 12 1015.7F
SETTLEMENT POINT           76     290/  7/  9 1016.0F

$$